Mount Sterling, KY

7:41 AM EST on November 13, 2019 (GMT -0500)
Mount Sterling-Montgomery County

Weather History for KIOB - October, 2019

Change the Weather History Date:

Monday, October 21, 2019

  Actual Average Record
Temperature  
Mean Temperature 65 °F -  
Max Temperature 77 °F 65 °F 77 °F (2017)
Min Temperature 53 °F 40 °F 32 °F (2018)
Growing Degree Days 15 (Base 50)    
Moisture  
Dew Point 57 °F    
Average Humidity 86    
Maximum Humidity 100    
Minimum Humidity 53    
Precipitation  
Precipitation 0.38 in - - ()
Sea Level Pressure  
Sea Level Pressure 29.89 in    
Wind  
Wind Speed 8 mph (South)    
Max Wind Speed 20 mph    
Max Gust Speed 29 mph    
Visibility 9 miles    
Events Fog , Rain    
Averages and records for this station are not official NWS values.
T = Trace of Precipitation, MM = Missing Value Source: NWS Daily Summary

Daily Weather History Graph

Daily Weather History Graph

Search for Another Location

Airport or City:

Astronomy

Oct. 21, 2019 Rise Set
Actual Time 7:50 AM EDT 6:50 PM EDT
Civil Twilight 7:23 AM EDT 7:17 PM EDT
Nautical Twilight 6:52 AM EDT 7:47 PM EDT
Astronomical Twilight 6:22 AM EDT 8:18 PM EDT
Moon 12:03 AM EDT (10/21) 3:04 PM EDT (10/21)
Length of Visible Light 11h 53m
Length of Day
11h 00m
Waning Gibbous, 48% of the Moon is Illuminated
Oct 21
Waning Gibbous
Oct 27
New
Nov 4
First Quarter
Nov 12
Full
Nov 19
Last Quarter

Hourly Weather History & Observations

Time (EDT) Temp. Dew Point Humidity Pressure Visibility Wind Dir Wind Speed Gust Speed Precip Events Conditions
12:15 AM 53.6 °F 53.6 °F 100% 30.00 in 0.8 mi SSE 3.5 mph - N/A   Mostly Cloudy
12:35 AM 53.6 °F 53.6 °F 100% 30.00 in 2.5 mi SSE 3.5 mph - N/A   Scattered Clouds
12:55 AM 53.6 °F 53.6 °F 100% 30.00 in 10.0 mi SE 4.6 mph - N/A   Clear
1:15 AM 55.4 °F 55.4 °F 100% 30.00 in 10.0 mi SE 6.9 mph - N/A   Clear
1:35 AM 55.4 °F 55.4 °F 100% 29.99 in 3.0 mi SE 6.9 mph - N/A   Scattered Clouds
1:55 AM 55.4 °F 55.4 °F 100% 29.98 in 0.5 mi SE 6.9 mph - N/A Fog Fog
2:15 AM 55.4 °F 55.4 °F 100% 29.97 in 1.0 mi SE 5.8 mph - N/A   Overcast
2:35 AM 55.4 °F 55.4 °F 100% 29.97 in 1.0 mi SSE 4.6 mph - N/A   Overcast
2:55 AM 55.4 °F 55.4 °F 100% 29.96 in 2.0 mi SSE 4.6 mph - N/A   Overcast
3:15 AM 55.4 °F 55.4 °F 100% 29.96 in 10.0 mi SSE 5.8 mph - N/A   Scattered Clouds
3:35 AM 55.4 °F 55.4 °F 100% 29.95 in 10.0 mi SSE 6.9 mph - N/A   Clear
3:55 AM 55.4 °F 55.4 °F 100% 29.94 in 10.0 mi SSE 5.8 mph - N/A   Clear
4:15 AM 55.4 °F 55.4 °F 100% 29.93 in 10.0 mi SSE 6.9 mph - N/A   Clear
4:35 AM 55.4 °F 55.4 °F 100% 29.92 in 10.0 mi SSE 8.1 mph - N/A   Clear
4:55 AM 55.4 °F 55.4 °F 100% 29.92 in 10.0 mi SSE 5.8 mph - N/A   Clear
5:15 AM 55.4 °F 55.4 °F 100% 29.92 in 10.0 mi SSE 5.8 mph - N/A   Clear
5:35 AM 55.4 °F 55.4 °F 100% 29.92 in 10.0 mi SSE 4.6 mph - N/A   Clear
5:55 AM 55.4 °F 55.4 °F 100% 29.93 in 10.0 mi SSE 4.6 mph - N/A   Clear
6:15 AM 55.4 °F 55.4 °F 100% 29.93 in 10.0 mi SSE 4.6 mph - N/A   Clear
6:35 AM 55.4 °F 55.4 °F 100% 29.93 in 10.0 mi SSE 5.8 mph - N/A   Clear
7:15 AM 55.4 °F 55.4 °F 100% 29.92 in 10.0 mi SSE 5.8 mph - N/A   Clear
7:35 AM 55.4 °F 55.4 °F 100% 29.92 in 10.0 mi SE 6.9 mph - N/A   Clear
7:55 AM 55.4 °F 55.4 °F 100% 29.91 in 10.0 mi SE 5.8 mph - N/A   Clear
8:15 AM 55.4 °F 55.4 °F 100% 29.92 in 10.0 mi SE 6.9 mph - N/A   Scattered Clouds
8:35 AM 55.4 °F 55.4 °F 100% 29.92 in 10.0 mi SSE 5.8 mph - N/A   Mostly Cloudy
8:55 AM 55.4 °F 55.4 °F 100% 29.91 in 10.0 mi SE 6.9 mph - N/A   Scattered Clouds
9:15 AM 57.2 °F 55.4 °F 94% 29.91 in 10.0 mi SE 5.8 mph - N/A   Clear
9:35 AM 59.0 °F 55.4 °F 88% 29.91 in 10.0 mi SSE 8.1 mph - N/A   Clear
9:55 AM 60.8 °F 55.4 °F 82% 29.91 in 10.0 mi South 8.1 mph - N/A   Clear
10:15 AM 60.8 °F 55.4 °F 82% 29.90 in 10.0 mi South 8.1 mph - N/A   Clear
10:35 AM 62.6 °F 55.4 °F 77% 29.89 in 10.0 mi South 8.1 mph - N/A   Clear
10:55 AM 64.4 °F 55.4 °F 73% 29.88 in 10.0 mi South 12.7 mph 17.3 mph N/A   Clear
11:15 AM 66.2 °F 57.2 °F 73% 29.88 in 10.0 mi SSW 11.5 mph - N/A   Mostly Cloudy
11:35 AM 68.0 °F 57.2 °F 68% 29.87 in 10.0 mi South 10.4 mph - N/A   Overcast
11:55 AM 68.0 °F 57.2 °F 68% 29.88 in 10.0 mi South 11.5 mph - N/A   Overcast
12:15 PM 69.8 °F 57.2 °F 64% 29.87 in 10.0 mi SSW 16.1 mph 20.7 mph N/A   Overcast
12:35 PM 71.6 °F 59.0 °F 64% 29.87 in 10.0 mi SSW 17.3 mph 23.0 mph N/A   Scattered Clouds
12:55 PM 71.6 °F 59.0 °F 64% 29.86 in 10.0 mi SSW 13.8 mph 28.8 mph N/A   Scattered Clouds
1:15 PM 71.6 °F 59.0 °F 64% 29.86 in 10.0 mi SSW 16.1 mph 23.0 mph N/A   Mostly Cloudy
1:35 PM 71.6 °F 59.0 °F 64% 29.85 in 10.0 mi SSW 16.1 mph 23.0 mph N/A   Mostly Cloudy
1:55 PM 73.4 °F 59.0 °F 61% 29.85 in 10.0 mi SSW 15.0 mph 23.0 mph N/A   Scattered Clouds
2:15 PM 73.4 °F 59.0 °F 61% 29.85 in 10.0 mi SW 8.1 mph 23.0 mph N/A   Scattered Clouds
2:35 PM 73.4 °F 59.0 °F 61% 29.85 in 10.0 mi SW 12.7 mph 21.9 mph N/A   Mostly Cloudy
2:55 PM 75.2 °F 59.0 °F 57% 29.84 in 10.0 mi SSW 11.5 mph 20.7 mph N/A   Mostly Cloudy
3:15 PM 77.0 °F 59.0 °F 54% 29.83 in 10.0 mi SSW 12.7 mph 25.3 mph N/A   Mostly Cloudy
3:35 PM 77.0 °F 59.0 °F 54% 29.83 in 10.0 mi SW 12.7 mph 24.2 mph N/A   Mostly Cloudy
3:55 PM 75.2 °F 57.2 °F 53% 29.83 in 10.0 mi SW 13.8 mph 21.9 mph N/A   Overcast
4:35 PM 73.4 °F 55.4 °F 53% 29.82 in 10.0 mi SSW 13.8 mph 24.2 mph N/A   Clear
4:55 PM 73.4 °F 55.4 °F 53% 29.82 in 10.0 mi SSW 13.8 mph 21.9 mph N/A   Mostly Cloudy
5:15 PM 71.6 °F 55.4 °F 57% 29.83 in 10.0 mi SSW 19.6 mph 28.8 mph N/A   Overcast
5:35 PM 71.6 °F 55.4 °F 57% 29.84 in 10.0 mi SW 16.1 mph 24.2 mph N/A   Light Drizzle
5:55 PM 69.8 °F 57.2 °F 64% 29.84 in 10.0 mi SW 9.2 mph 18.4 mph N/A   Overcast
6:15 PM 68.0 °F 59.0 °F 73% 29.85 in 10.0 mi WSW 10.4 mph - N/A   Drizzle
6:35 PM 64.4 °F 60.8 °F 88% 29.85 in 10.0 mi WSW 8.1 mph 16.1 mph N/A Rain Light Rain
6:55 PM 62.6 °F 60.8 °F 94% 29.86 in 10.0 mi West 10.4 mph - 0.02 in Rain Light Rain
7:15 PM 62.6 °F 60.8 °F 94% 29.87 in 5.0 mi WSW 4.6 mph - 0.04 in Rain Light Rain
7:35 PM 62.6 °F 60.8 °F 94% 29.87 in 10.0 mi SSW 9.2 mph - 0.05 in   Drizzle
7:55 PM 62.6 °F 60.8 °F 94% 29.87 in 10.0 mi SSW 10.4 mph 17.3 mph 0.06 in Rain Light Rain
8:15 PM 62.6 °F 60.8 °F 94% 29.87 in 10.0 mi South 11.5 mph - 0.02 in Rain Rain
8:35 PM 62.6 °F 60.8 °F 94% 29.87 in 7.0 mi SSW 10.4 mph - 0.05 in Rain Rain
8:55 PM 62.6 °F 60.8 °F 94% 29.87 in 10.0 mi SSW 8.1 mph - 0.07 in Rain Light Rain
9:15 PM 60.8 °F 60.8 °F 100% 29.87 in 10.0 mi SSW 9.2 mph 16.1 mph N/A Rain Light Rain
9:35 PM 60.8 °F 60.8 °F 100% 29.86 in 10.0 mi SSW 5.8 mph - 0.02 in Rain Rain
9:55 PM 60.8 °F 60.8 °F 100% 29.86 in 10.0 mi South 6.9 mph - 0.04 in Rain Light Rain
10:15 PM 60.8 °F 60.8 °F 100% 29.85 in 7.0 mi South 9.2 mph - 0.03 in Rain Rain
10:35 PM 60.8 °F 60.8 °F 100% 29.86 in 10.0 mi SSW 8.1 mph - 0.04 in Rain Rain
10:55 PM 60.8 °F 60.8 °F 100% 29.87 in 5.0 mi SW 9.2 mph - 0.12 in Rain Rain
11:15 PM 60.8 °F 60.8 °F 100% 29.88 in 7.0 mi SW 8.1 mph - 0.02 in Rain Light Rain
11:35 PM 60.8 °F 60.8 °F 100% 29.87 in 10.0 mi WSW 6.9 mph 17.3 mph 0.06 in Rain Light Rain
11:55 PM 60.8 °F 59.0 °F 94% 29.87 in 10.0 mi SW 10.4 mph - 0.07 in Rain Light Rain